Weather History for TAMWORTH AIRPOR, Australia

Change the Weather History Date:

Saturday, August 24, 2013

  Actual Average Record
Temperature  
Mean Temperature 56 °F -  
Max Temperature 71 °F - - ()
Min Temperature 42 °F - - ()
Degree Days  
Heating Degree Days 8    
Growing Degree Days 6 (Base 50)    
Moisture  
Dew Point 43 °F    
Average Humidity 67    
Maximum Humidity 100    
Minimum Humidity 40    
Precipitation  
Precipitation 0.00 in - - ()
Sea Level Pressure  
Sea Level Pressure 30.16 in    
Wind  
Wind Speed 5 mph ()    
Max Wind Speed 13 mph    
Max Gust Speed -    
Visibility 6.2 miles    
Events      
T = Trace of Precipitation, MM = Missing Value Source: Averaged Metar Reports

Daily Weather History Graph

Daily Weather History Graph

Search for Another Location

Airport:

Trip Planner

Search our weather history database for the weather conditions in past years. The results will help you decide how hot, cold, wet, or windy it might be!

Date:

Astronomy

Aug. 24, 2013 Rise Set
Actual Time 6:22 AM AEST 5:36 PM AEST
Civil Twilight 5:57 AM AEST 6:00 PM AEST
Nautical Twilight 5:29 AM AEST 6:28 PM AEST
Astronomical Twilight 5:01 AM AEST 6:56 PM AEST
Moon 8:59 PM AEST (8/24) 7:58 AM AEST (8/24)
Length of Visible Light 12h 02m
Length of Day
11h 13m
Waning Gibbous, 89% of the Moon is Illuminated
Aug 24
Waning Gibbous
Aug 28
Last Quarter
Sep 5
New
Sep 13
First Quarter
Sep 19
Full

Hourly Weather History & Observations

Time (AEST) Temp. Windchill Dew Point Humidity Pressure Visibility Wind Dir Wind Speed Gust Speed Precip Events Conditions
12:00 AM 58 °F - 58 °F 100%  in - WNW 12.7 mph - -  
12:00 AM 53.6 °F - 41.0 °F 62% 30.12 in 6.2 mi West 8.1 mph - N/A   Overcast
12:30 AM 51.8 °F - 39.2 °F 62% 30.09 in 6.2 mi WNW 6.9 mph - N/A   Mostly Cloudy
1:00 AM 48.2 °F - 39.2 °F 71% 30.09 in 6.2 mi NW 5.8 mph - N/A   Mostly Cloudy
1:30 AM 46.4 °F 42.9 °F 37.4 °F 71% 30.12 in 6.2 mi WNW 6.9 mph - N/A   Scattered Clouds
2:00 AM 48.2 °F - 39.2 °F 71% 30.12 in 6.2 mi West 5.8 mph - N/A   Overcast
2:30 AM 48.2 °F - 41.0 °F 76% 30.09 in 6.2 mi WNW 6.9 mph - N/A   Overcast
3:00 AM 56 °F - 56 °F 100%  in - West 6.9 mph - -  
3:00 AM 48.2 °F - 39.2 °F 71% 30.09 in 6.2 mi WNW 6.9 mph - N/A   Mostly Cloudy
3:30 AM 44.6 °F 43.1 °F 37.4 °F 76% 30.09 in 6.2 mi East 3.5 mph - N/A   Unknown
4:00 AM 44.6 °F 42.2 °F 37.4 °F 76% 30.09 in 6.2 mi WNW 4.6 mph - N/A   Overcast
4:30 AM 44.6 °F 42.2 °F 39.2 °F 81% 30.09 in 6.2 mi North 4.6 mph - N/A   Mostly Cloudy
5:00 AM 46.4 °F - 41.0 °F 81% 30.12 in 6.2 mi Calm Calm - N/A   Overcast
5:30 AM 48.2 °F - 41.0 °F 76% 30.12 in 6.2 mi Calm Calm - N/A   Overcast
6:00 AM 48 °F - 48 °F 98%  in - WSW 5.8 mph - -  
6:00 AM 46.4 °F - 39.2 °F 76% 30.12 in 6.2 mi Calm Calm - N/A   Overcast
6:30 AM 46.4 °F 45.2 °F 41.0 °F 81% 30.15 in 6.2 mi ENE 3.5 mph - N/A   Overcast
7:00 AM 48.2 °F - 41.0 °F 76% 30.15 in 6.2 mi NNE 4.6 mph - N/A   Overcast
7:30 AM 48.2 °F - 41.0 °F 76% 30.15 in 6.2 mi North 5.8 mph - N/A   Mostly Cloudy
8:00 AM 51.8 °F - 42.8 °F 71% 30.18 in 6.2 mi North 5.8 mph - N/A   Unknown
8:30 AM 51.8 °F - 41.0 °F 67% 30.18 in 6.2 mi NE 5.8 mph - N/A   Unknown
9:00 AM 61 °F - 60 °F 96%  in - West 9.2 mph - -  
9:00 AM 53.6 °F - 42.8 °F 67% 30.21 in 6.2 mi NE 4.6 mph - N/A   Overcast
9:30 AM 59.0 °F - 44.6 °F 59% 30.21 in 6.2 mi WNW 6.9 mph - N/A   Scattered Clouds
10:00 AM 57.2 °F - 42.8 °F 59% 30.21 in 6.2 mi NW 4.6 mph - N/A   Mostly Cloudy
10:30 AM 57.2 °F - 41.0 °F 55% 30.21 in 6.2 mi WSW 4.6 mph - N/A   Overcast
11:00 AM 59.0 °F - 41.0 °F 51% 30.21 in 6.2 mi South 2.3 mph - N/A   Overcast
11:30 AM 62.6 °F - 42.8 °F 48% 30.18 in 6.2 mi WNW 5.8 mph - N/A   Overcast
12:00 PM 62.6 °F - 41.0 °F 45% 30.18 in 6.2 mi West 6.9 mph - N/A   Mostly Cloudy
12:30 PM 62.6 °F - 39.2 °F 42% 30.18 in 6.2 mi West 5.8 mph - N/A   Mostly Cloudy
1:00 PM 64.4 °F - 42.8 °F 45% 30.15 in 6.2 mi WSW 6.9 mph - N/A   Scattered Clouds
1:30 PM 64.4 °F - 41.0 °F 42% 30.15 in 6.2 mi West 5.8 mph - N/A   Unknown
2:00 PM 64.4 °F - 39.2 °F 40% 30.15 in 6.2 mi WNW 6.9 mph - N/A   Unknown
2:30 PM 64.4 °F - 41.0 °F 42% 30.15 in 6.2 mi West 6.9 mph - N/A   Unknown
3:00 PM 71 °F - 71 °F 99%  in - WNW 5.8 mph - -  
3:00 PM 64.4 °F - 39.2 °F 40% 30.15 in 6.2 mi NNW 5.8 mph - N/A   Unknown
3:30 PM 66.2 °F - 42.8 °F 43% 30.15 in 6.2 mi West 4.6 mph - N/A   Unknown
4:00 PM 66.2 °F - 42.8 °F 43% 30.15 in 6.2 mi West 6.9 mph - N/A   Unknown
4:30 PM 66.2 °F - 41.0 °F 40% 30.15 in 6.2 mi West 3.5 mph - N/A   Unknown
5:00 PM 64.4 °F - 41.0 °F 42% 30.15 in 6.2 mi West 4.6 mph - N/A   Unknown
5:30 PM 60.8 °F - 39.2 °F 45% 30.18 in 6.2 mi WSW 3.5 mph - N/A   Unknown
6:00 PM 58 °F - 58 °F 100%  in - East 5.8 mph - -  
6:00 PM 59.0 °F - 41.0 °F 51% 30.18 in 6.2 mi Calm Calm - N/A   Unknown
6:30 PM 57.2 °F - 41.0 °F 55% 30.18 in 6.2 mi Calm Calm - N/A   Unknown
7:00 PM 51.8 °F - 37.4 °F 58% 30.18 in 6.2 mi Calm Calm - N/A   Unknown
7:30 PM 51.8 °F - 41.0 °F 67% 30.21 in 6.2 mi Calm Calm - N/A   Unknown
8:00 PM 50.0 °F - 41.0 °F 71% 30.21 in 6.2 mi Calm Calm - N/A   Unknown
8:30 PM 46.4 °F - 39.2 °F 76% 30.21 in 6.2 mi NNE 1.2 mph - N/A   Unknown
9:00 PM 51 °F - 51 °F 100%  in - WSW 5.8 mph - -  
9:00 PM 46.4 °F - 37.4 °F 71% 30.21 in 6.2 mi Calm Calm - N/A   Unknown
9:30 PM 42.8 °F 41.1 °F 35.6 °F 76% 30.24 in 6.2 mi NW 3.5 mph - N/A   Unknown
10:00 PM 46.4 °F 43.5 °F 41.0 °F 81% 30.24 in 6.2 mi South 5.8 mph - N/A   Unknown
10:30 PM 46.4 °F 41.5 °F 41.0 °F 81% 30.24 in 6.2 mi SSE 10.4 mph - N/A   Unknown
11:00 PM 44.6 °F 42.2 °F 39.2 °F 81% 30.24 in 6.2 mi East 4.6 mph - N/A   Unknown
11:30 PM 42.8 °F 40.1 °F 37.4 °F 81% 30.24 in 6.2 mi SE 4.6 mph - N/A   Unknown